CZ-6A DEB

Satellite information

Favourite Embed

Satellite Type and Status

DEBRISIN ORBIT

Key statistics

Satellite CZ-6A DEB at a glance.

Uptime

1078

Days in orbit

Revolutions

≈ 14.2

Per day

Orbit

SSO

Sun Synchronous Orbit

Inclination

98.8

Latest

Satellite identification and parameters

Extended collection of information and parameters for CZ-6A DEB.

Object identification

Identified? True

Debris? True

Object name: CZ-6A DEB

International designator: 2022-151AFK

Object number (NORAD): 56635

Object ID (CCSDS): 56635

Country: PEOPLES REPUBLIC OF CHINA (PRC)

Current information (Y/N): Y

RCS size: SMALL

Orbital parameters

Period: 101.396 minutes

Inclination: 98.758 deg

SMA: 7202.885 km

Apoapsis: 846.011 km

Periapsis: 803.489 km

RAAN: 304.5141 deg

Eccentricy: 0.0029517

Argument of periapsis: 309.2891 deg

Mean anomaly: 50.5668 deg

Mean motion: 14.20178775 rev/day

Mean motion (dot): 0.00001336 rev/day2

B* drag term: 0.00064393 1/REarth

Two-line elements (TLE)

Creation date: Oct. 23, 2025, 10:16 p.m.

Reference frame: TEME

Reference center: EARTH

Epoch: Oct. 23, 2025, 11:08 a.m. UTC

TLE line 0: 0 CZ-6A DEB

TLE line 1: 1 56635U 22151AFK 25296.46454683 .00001336 00000-0 64393-3 0 9991

TLE line 2: 2 56635 98.7580 304.5141 0029517 309.2891 50.5668 14.20178775129383

Live tracking on map

Real-time ground track for satellite CZ-6A DEB.

In-orbit conjunctions

A list of the most updated potential collisions computed for object CZ-6A DEB.

Target Orbit TCA Probability of collision Miss distance Type
CZ-6A DEB LEO 2025-10-21 23:40:50 0.0001491001 168.0 (m) DEBRIS
CZ-6A DEB LEO 2025-02-10 02:47:13 0.0002215819 610.0 (m) DEBRIS

Associated space launch

Chinese satellite reported for atmospheric/ocean/environmental/spatial parameter research purposes, details TBD.

CZ-6A DEB was lifted into orbit during the mission ‘Long March 6A | Yunhai 3’, on board a Long March 6A space rocket.

The launch took place on Nov. 11, 2022, 10:52 p.m. from Launch Complex 9A.

For more information about the launch, click the button.

Launch to space Long March 6A | Yunhai 3
Long March 6A | Yunhai 3

Agency: N/A

Status: Launch Successful

Launch date: Nov. 11, 2022, 10:52 p.m. UTC

Rocket: Long March 6A

Launch pad: Launch Complex 9A

Location: Taiyuan Satellite Launch Center, People's Republic of China

...

Latest news about this satellite

There are no fresh news available about this satellite. Check back as we update our databases every day.


Newsletter sign-up

Weekly statistics, charts and insights to help you stay on top of the space industry.